Time,TemperatureF,DewpointF,PressureIn,WindDirection,WindDirectionDegrees,WindSpeedMPH,WindSpeedGustMPH,Humidity,HourlyPrecipIn,Conditions,Clouds,dailyrainin,SoftwareType,DateUTC
2013-01-11 00:03:00,28.2,24.3,30.51,WNW,298,2.0,2.0,85,0.00,,,0.00,LWC V2.10 B1813,2013-01-11 05:03:00,
2013-01-11 00:08:00,28.0,24.1,30.51,West,279,2.0,3.0,85,0.00,,,0.00,LWC V2.10 B1813,2013-01-11 05:08:00,
2013-01-11 00:13:00,28.0,23.8,30.51,WNW,284,0.0,2.0,84,0.00,,,0.00,LWC V2.10 B1813,2013-01-11 05:13:00,
2013-01-11 00:18:00,27.7,23.8,30.51,WSW,237,1.0,2.0,85,0.00,,,0.00,LWC V2.10 B1813,2013-01-11 05:18:00,
2013-01-11 00:23:00,27.6,23.7,30.51,WSW,254,0.0,1.0,85,0.00,,,0.00,LWC V2.10 B1813,2013-01-11 05:23:00,
2013-01-11 00:28:00,27.4,23.8,30.50,WNW,290,1.0,1.0,86,0.00,,,0.00,LWC V2.10 B1813,2013-01-11 05:28:00,
2013-01-11 00:33:00,27.2,23.6,30.49,WNW,293,0.0,1.0,86,0.00,,,0.00,LWC V2.10 B1813,2013-01-11 05:33:00,
2013-01-11 00:38:00,26.9,23.3,30.49,ESE,118,1.0,1.0,86,0.00,,,0.00,LWC V2.10 B1813,2013-01-11 05:38:00,
2013-01-11 00:43:00,26.7,23.4,30.49,ESE,114,0.0,0.0,87,0.00,,,0.00,LWC V2.10 B1813,2013-01-11 05:43:00,
2013-01-11 00:48:00,26.4,23.1,30.50,NE,45,1.0,1.0,87,0.00,,,0.00,LWC V2.10 B1813,2013-01-11 05:48:00,
2013-01-11 00:53:00,26.1,23.0,30.49,NE,44,0.0,0.0,88,0.00,,,0.00,LWC V2.10 B1813,2013-01-11 05:53:00,
2013-01-11 00:58:00,26.1,23.3,30.50,NW,323,1.0,1.0,89,0.00,,,0.00,LWC V2.10 B1813,2013-01-11 05:58:00,
2013-01-11 01:03:00,26.2,23.1,30.50,WNW,290,1.0,1.0,88,0.00,,,0.00,LWC V2.10 B1813,2013-01-11 06:03:00,
2013-01-11 01:08:00,26.1,23.0,30.50,West,276,2.0,2.0,88,0.00,,,0.00,LWC V2.10 B1813,2013-01-11 06:08:00,
2013-01-11 01:13:00,26.1,23.0,30.50,West,277,1.0,1.0,88,0.00,,,0.00,LWC V2.10 B1813,2013-01-11 06:13:00,
2013-01-11 01:18:00,26.1,23.0,30.50,WNW,290,1.0,1.0,88,0.00,,,0.00,LWC V2.10 B1813,2013-01-11 06:18:00,
2013-01-11 01:23:00,26.1,23.3,30.50,WNW,296,1.0,2.0,89,0.00,,,0.00,LWC V2.10 B1813,2013-01-11 06:23:00,
2013-01-11 01:28:00,25.9,22.8,30.49,WNW,294,0.0,0.0,88,0.00,,,0.00,LWC V2.10 B1813,2013-01-11 06:28:00,
2013-01-11 01:33:00,25.7,22.6,30.49,WNW,296,0.0,0.0,88,0.00,,,0.00,LWC V2.10 B1813,2013-01-11 06:33:00,
2013-01-11 01:38:00,25.4,22.6,30.49,WNW,296,0.0,0.0,89,0.00,,,0.00,LWC V2.10 B1813,2013-01-11 06:38:00,
2013-01-11 01:43:00,25.2,22.4,30.49,WNW,295,0.0,0.0,89,0.00,,,0.00,LWC V2.10 B1813,2013-01-11 06:43:00,
2013-01-11 01:48:00,24.9,22.4,30.49,WNW,296,0.0,0.0,90,0.00,,,0.00,LWC V2.10 B1813,2013-01-11 06:48:00,
2013-01-11 01:53:00,24.8,22.3,30.49,WNW,296,0.0,0.0,90,0.00,,,0.00,LWC V2.10 B1813,2013-01-11 06:53:00,
2013-01-11 01:58:00,24.7,22.2,30.49,WNW,296,0.0,0.0,90,0.00,,,0.00,LWC V2.10 B1813,2013-01-11 06:58:00,
2013-01-11 02:03:00,24.6,22.1,30.49,WNW,295,0.0,0.0,90,0.00,,,0.00,LWC V2.10 B1813,2013-01-11 07:03:00,
2013-01-11 02:08:00,24.3,21.8,30.49,WNW,296,0.0,0.0,90,0.00,,,0.00,LWC V2.10 B1813,2013-01-11 07:08:00,
2013-01-11 02:13:00,24.0,21.8,30.48,WNW,296,1.0,1.0,91,0.00,,,0.00,LWC V2.10 B1813,2013-01-11 07:13:00,
2013-01-11 02:18:00,24.1,22.1,30.48,WNW,291,1.0,2.0,92,0.00,,,0.00,LWC V2.10 B1813,2013-01-11 07:18:00,
2013-01-11 02:23:00,24.3,22.1,30.47,West,279,1.0,3.0,91,0.00,,,0.00,LWC V2.10 B1813,2013-01-11 07:23:00,
2013-01-11 02:28:00,24.4,22.2,30.48,West,275,1.0,2.0,91,0.00,,,0.00,LWC V2.10 B1813,2013-01-11 07:28:00,
2013-01-11 02:33:00,24.5,22.3,30.48,West,276,1.0,1.0,91,0.00,,,0.00,LWC V2.10 B1813,2013-01-11 07:33:00,
2013-01-11 02:38:00,24.5,22.3,30.48,West,277,0.0,1.0,91,0.00,,,0.00,LWC V2.10 B1813,2013-01-11 07:38:00,
2013-01-11 02:43:00,24.6,22.4,30.47,West,277,1.0,1.0,91,0.00,,,0.00,LWC V2.10 B1813,2013-01-11 07:43:00,
2013-01-11 02:48:00,24.4,22.2,30.47,West,277,0.0,0.0,91,0.00,,,0.00,LWC V2.10 B1813,2013-01-11 07:48:00,
2013-01-11 02:53:00,24.2,22.0,30.47,West,277,0.0,0.0,91,0.00,,,0.00,LWC V2.10 B1813,2013-01-11 07:53:00,
2013-01-11 02:58:00,23.9,21.7,30.47,West,277,0.0,0.0,91,0.00,,,0.00,LWC V2.10 B1813,2013-01-11 07:58:00,
2013-01-11 03:03:00,23.7,21.7,30.47,West,277,0.0,0.0,92,0.00,,,0.00,LWC V2.10 B1813,2013-01-11 08:03:00,
2013-01-11 03:08:00,23.7,21.7,30.47,West,277,1.0,1.0,92,0.00,,,0.00,LWC V2.10 B1813,2013-01-11 08:08:00,
2013-01-11 03:13:00,23.6,21.6,30.47,West,277,0.0,1.0,92,0.00,,,0.00,LWC V2.10 B1813,2013-01-11 08:13:00,
2013-01-11 03:18:00,23.5,21.5,30.47,West,277,0.0,0.0,92,0.00,,,0.00,LWC V2.10 B1813,2013-01-11 08:18:00,
2013-01-11 03:23:00,23.1,20.9,30.47,West,277,0.0,0.0,91,0.00,,,0.00,LWC V2.10 B1813,2013-01-11 08:23:00,
2013-01-11 03:28:00,22.7,20.7,30.46,West,277,0.0,0.0,92,0.00,,,0.00,LWC V2.10 B1813,2013-01-11 08:28:00,
2013-01-11 03:33:00,22.7,21.0,30.46,WNW,286,1.0,1.0,93,0.00,,,0.00,LWC V2.10 B1813,2013-01-11 08:33:00,
2013-01-11 03:38:00,22.9,21.2,30.47,WNW,283,0.0,0.0,93,0.00,,,0.00,LWC V2.10 B1813,2013-01-11 08:38:00,
2013-01-11 03:43:00,22.9,21.2,30.47,WNW,282,0.0,0.0,93,0.00,,,0.00,LWC V2.10 B1813,2013-01-11 08:43:00,
2013-01-11 03:48:00,23.0,21.3,30.47,WNW,283,1.0,1.0,93,0.00,,,0.00,LWC V2.10 B1813,2013-01-11 08:48:00,
2013-01-11 03:53:00,23.0,21.3,30.46,WNW,283,0.0,0.0,93,0.00,,,0.00,LWC V2.10 B1813,2013-01-11 08:53:00,
2013-01-11 03:58:00,22.7,21.0,30.46,WNW,283,0.0,1.0,93,0.00,,,0.00,LWC V2.10 B1813,2013-01-11 08:58:00,
2013-01-11 04:03:00,22.5,20.8,30.47,WNW,283,0.0,0.0,93,0.00,,,0.00,LWC V2.10 B1813,2013-01-11 09:03:00,
2013-01-11 04:08:00,22.1,20.4,30.47,WNW,282,0.0,0.0,93,0.00,,,0.00,LWC V2.10 B1813,2013-01-11 09:08:00,
2013-01-11 04:13:00,22.2,20.7,30.46,WNW,283,1.0,1.0,94,0.00,,,0.00,LWC V2.10 B1813,2013-01-11 09:13:00,
2013-01-11 04:18:00,22.4,20.9,30.46,West,269,1.0,1.0,94,0.00,,,0.00,LWC V2.10 B1813,2013-01-11 09:18:00,
2013-01-11 04:23:00,22.5,21.0,30.46,SW,228,0.0,1.0,94,0.00,,,0.00,LWC V2.10 B1813,2013-01-11 09:23:00,
2013-01-11 04:28:00,22.5,21.0,30.46,SW,228,0.0,0.0,94,0.00,,,0.00,LWC V2.10 B1813,2013-01-11 09:28:00,
2013-01-11 04:33:00,22.6,21.1,30.46,WNW,286,1.0,2.0,94,0.00,,,0.00,LWC V2.10 B1813,2013-01-11 09:33:00,
2013-01-11 04:38:00,22.7,21.2,30.45,WNW,287,0.0,1.0,94,0.00,,,0.00,LWC V2.10 B1813,2013-01-11 09:38:00,
2013-01-11 04:43:00,22.6,21.1,30.46,WNW,286,0.0,1.0,94,0.00,,,0.00,LWC V2.10 B1813,2013-01-11 09:43:00,
2013-01-11 04:48:00,22.4,20.7,30.46,WNW,286,0.0,0.0,93,0.00,,,0.00,LWC V2.10 B1813,2013-01-11 09:48:00,
2013-01-11 04:53:00,22.3,20.8,30.46,WNW,286,0.0,0.0,94,0.00,,,0.00,LWC V2.10 B1813,2013-01-11 09:53:00,
2013-01-11 04:58:00,22.3,20.8,30.46,WNW,286,0.0,0.0,94,0.00,,,0.00,LWC V2.10 B1813,2013-01-11 09:58:00,
2013-01-11 05:03:00,22.3,20.8,30.46,WNW,286,0.0,0.0,94,0.00,,,0.00,LWC V2.10 B1813,2013-01-11 10:03:00,
2013-01-11 05:08:00,22.2,20.7,30.47,WNW,286,0.0,0.0,94,0.00,,,0.00,LWC V2.10 B1813,2013-01-11 10:08:00,
2013-01-11 05:13:00,22.5,21.3,30.47,WNW,286,0.0,0.0,95,0.00,,,0.00,LWC V2.10 B1813,2013-01-11 10:13:00,
2013-01-11 05:18:00,22.5,21.0,30.47,WNW,286,0.0,0.0,94,0.00,,,0.00,LWC V2.10 B1813,2013-01-11 10:18:00,
2013-01-11 05:23:00,22.3,20.8,30.47,WNW,286,0.0,0.0,94,0.00,,,0.00,LWC V2.10 B1813,2013-01-11 10:23:00,
2013-01-11 05:28:00,22.2,20.7,30.47,WNW,286,0.0,0.0,94,0.00,,,0.00,LWC V2.10 B1813,2013-01-11 10:28:00,
2013-01-11 05:33:00,22.1,20.6,30.47,WNW,286,0.0,0.0,94,0.00,,,0.00,LWC V2.10 B1813,2013-01-11 10:33:00,
2013-01-11 05:38:00,22.0,20.5,30.47,WNW,286,0.0,0.0,94,0.00,,,0.00,LWC V2.10 B1813,2013-01-11 10:38:00,
2013-01-11 05:43:00,22.3,21.1,30.46,WNW,286,0.0,0.0,95,0.00,,,0.00,LWC V2.10 B1813,2013-01-11 10:43:00,
2013-01-11 05:48:00,22.5,21.3,30.46,WNW,286,0.0,0.0,95,0.00,,,0.00,LWC V2.10 B1813,2013-01-11 10:48:00,
2013-01-11 05:53:00,22.7,21.5,30.46,WNW,286,0.0,0.0,95,0.00,,,0.00,LWC V2.10 B1813,2013-01-11 10:53:00,
2013-01-11 05:58:00,23.0,21.8,30.46,WNW,286,0.0,1.0,95,0.00,,,0.00,LWC V2.10 B1813,2013-01-11 10:58:00,
2013-01-11 06:03:00,23.3,21.8,30.47,WNW,286,0.0,0.0,94,0.00,,,0.00,LWC V2.10 B1813,2013-01-11 11:03:00,
2013-01-11 06:08:00,23.4,21.9,30.47,WNW,286,0.0,0.0,94,0.00,,,0.00,LWC V2.10 B1813,2013-01-11 11:08:00,
2013-01-11 06:13:00,23.4,21.9,30.47,WNW,286,0.0,0.0,94,0.00,,,0.00,LWC V2.10 B1813,2013-01-11 11:13:00,
2013-01-11 06:18:00,23.3,21.6,30.47,WNW,286,0.0,0.0,93,0.00,,,0.00,LWC V2.10 B1813,2013-01-11 11:18:00,
2013-01-11 06:23:00,23.4,21.9,30.47,WNW,286,0.0,0.0,94,0.00,,,0.00,LWC V2.10 B1813,2013-01-11 11:23:00,
2013-01-11 06:28:00,23.5,22.0,30.47,WNW,287,0.0,0.0,94,0.00,,,0.00,LWC V2.10 B1813,2013-01-11 11:28:00,
2013-01-11 06:33:00,23.4,21.9,30.47,WNW,286,0.0,0.0,94,0.00,,,0.00,LWC V2.10 B1813,2013-01-11 11:33:00,
2013-01-11 06:38:00,23.2,21.7,30.47,WNW,286,0.0,0.0,94,0.00,,,0.00,LWC V2.10 B1813,2013-01-11 11:38:00,
2013-01-11 06:43:00,23.0,21.3,30.47,WNW,286,0.0,0.0,93,0.00,,,0.00,LWC V2.10 B1813,2013-01-11 11:43:00,
2013-01-11 06:48:00,23.0,21.5,30.47,WNW,286,0.0,0.0,94,0.00,,,0.00,LWC V2.10 B1813,2013-01-11 11:48:00,
2013-01-11 06:53:00,23.0,21.5,30.47,WNW,286,0.0,0.0,94,0.00,,,0.00,LWC V2.10 B1813,2013-01-11 11:53:00,
2013-01-11 06:58:00,23.1,21.6,30.47,WNW,286,0.0,0.0,94,0.00,,,0.00,LWC V2.10 B1813,2013-01-11 11:58:00,
2013-01-11 07:03:00,23.0,21.5,30.47,WNW,286,0.0,0.0,94,0.00,,,0.00,LWC V2.10 B1813,2013-01-11 12:03:00,
2013-01-11 07:08:00,23.1,21.6,30.47,WNW,286,0.0,0.0,94,0.00,,,0.00,LWC V2.10 B1813,2013-01-11 12:08:00,
2013-01-11 07:13:00,23.2,21.7,30.47,WNW,286,0.0,0.0,94,0.00,,,0.00,LWC V2.10 B1813,2013-01-11 12:13:00,
2013-01-11 07:18:00,23.3,21.8,30.47,WNW,286,0.0,0.0,94,0.00,,,0.00,LWC V2.10 B1813,2013-01-11 12:18:00,
2013-01-11 07:23:00,23.4,21.9,30.47,WNW,286,0.0,0.0,94,0.00,,,0.00,LWC V2.10 B1813,2013-01-11 12:23:00,
2013-01-11 07:28:00,23.4,21.9,30.47,WNW,286,0.0,0.0,94,0.00,,,0.00,LWC V2.10 B1813,2013-01-11 12:28:00,
2013-01-11 07:33:00,23.3,21.8,30.47,WNW,286,0.0,0.0,94,0.00,,,0.00,LWC V2.10 B1813,2013-01-11 12:33:00,
2013-01-11 07:38:00,23.5,22.0,30.47,SW,225,0.0,0.0,94,0.00,,,0.00,LWC V2.10 B1813,2013-01-11 12:38:00,
2013-01-11 07:43:00,23.6,22.1,30.46,SW,225,0.0,0.0,94,0.00,,,0.00,LWC V2.10 B1813,2013-01-11 12:43:00,
2013-01-11 07:48:00,23.8,22.3,30.46,SW,225,0.0,0.0,94,0.00,,,0.00,LWC V2.10 B1813,2013-01-11 12:48:00,
2013-01-11 07:53:00,23.9,22.4,30.46,SW,225,0.0,0.0,94,0.00,,,0.00,LWC V2.10 B1813,2013-01-11 12:53:00,
2013-01-11 07:58:00,24.2,22.7,30.46,SW,225,0.0,0.0,94,0.00,,,0.00,LWC V2.10 B1813,2013-01-11 12:58:00,
2013-01-11 08:03:00,24.4,22.7,30.46,SW,225,0.0,0.0,93,0.00,,,0.00,LWC V2.10 B1813,2013-01-11 13:03:00,
2013-01-11 08:08:00,24.6,22.9,30.46,SW,225,0.0,0.0,93,0.00,,,0.00,LWC V2.10 B1813,2013-01-11 13:08:00,
2013-01-11 08:13:00,24.8,23.1,30.47,SW,225,0.0,0.0,93,0.00,,,0.00,LWC V2.10 B1813,2013-01-11 13:13:00,
2013-01-11 08:18:00,24.9,23.2,30.47,SW,225,0.0,0.0,93,0.00,,,0.00,LWC V2.10 B1813,2013-01-11 13:18:00,
2013-01-11 08:23:00,25.2,23.2,30.47,SW,225,0.0,0.0,92,0.00,,,0.00,LWC V2.10 B1813,2013-01-11 13:23:00,
2013-01-11 08:28:00,25.4,23.4,30.47,SW,225,0.0,0.0,92,0.00,,,0.00,LWC V2.10 B1813,2013-01-11 13:28:00,
2013-01-11 08:33:00,25.6,23.6,30.46,SW,225,0.0,0.0,92,0.00,,,0.00,LWC V2.10 B1813,2013-01-11 13:33:00,
2013-01-11 08:38:00,25.8,23.8,30.46,SW,225,0.0,0.0,92,0.00,,,0.00,LWC V2.10 B1813,2013-01-11 13:38:00,
2013-01-11 08:43:00,26.0,23.7,30.45,SW,225,0.0,0.0,91,0.00,,,0.00,LWC V2.10 B1813,2013-01-11 13:43:00,
2013-01-11 08:48:00,26.1,23.6,30.46,SSW,204,0.0,0.0,90,0.00,,,0.00,LWC V2.10 B1813,2013-01-11 13:48:00,
2013-01-11 08:53:00,26.3,23.8,30.46,SSW,204,0.0,0.0,90,0.00,,,0.00,LWC V2.10 B1813,2013-01-11 13:53:00,
2013-01-11 08:58:00,26.6,24.1,30.46,SSW,204,0.0,0.0,90,0.00,,,0.00,LWC V2.10 B1813,2013-01-11 13:58:00,
2013-01-11 09:03:00,27.0,24.2,30.46,SSW,202,0.0,0.0,89,0.00,,,0.00,LWC V2.10 B1813,2013-01-11 14:03:00,
2013-01-11 09:08:00,27.2,24.1,30.46,SE,125,0.0,1.0,88,0.00,,,0.00,LWC V2.10 B1813,2013-01-11 14:08:00,
2013-01-11 09:13:00,27.5,24.4,30.46,SE,124,0.0,0.0,88,0.00,,,0.00,LWC V2.10 B1813,2013-01-11 14:13:00,
2013-01-11 09:18:00,27.8,24.7,30.45,SE,124,0.0,1.0,88,0.00,,,0.00,LWC V2.10 B1813,2013-01-11 14:18:00,
2013-01-11 09:23:00,28.0,24.6,30.45,ESE,121,0.0,1.0,87,0.00,,,0.00,LWC V2.10 B1813,2013-01-11 14:23:00,
2013-01-11 09:28:00,28.4,25.0,30.45,ESE,121,0.0,0.0,87,0.00,,,0.00,LWC V2.10 B1813,2013-01-11 14:28:00,
2013-01-11 09:33:00,28.6,24.7,30.45,South,185,0.0,0.0,85,0.00,,,0.00,LWC V2.10 B1813,2013-01-11 14:33:00,
2013-01-11 09:38:00,28.9,25.0,30.44,SSE,156,0.0,1.0,85,0.00,,,0.00,LWC V2.10 B1813,2013-01-11 14:38:00,
2013-01-11 09:43:00,29.4,25.2,30.45,SSE,157,0.0,0.0,84,0.00,,,0.00,LWC V2.10 B1813,2013-01-11 14:43:00,
2013-01-11 09:48:00,30.2,25.7,30.44,ESE,121,0.0,1.0,83,0.00,,,0.00,LWC V2.10 B1813,2013-01-11 14:48:00,
2013-01-11 09:53:00,30.4,25.6,30.44,SE,145,0.0,1.0,82,0.00,,,0.00,LWC V2.10 B1813,2013-01-11 14:53:00,
2013-01-11 09:58:00,30.6,25.5,30.44,SE,142,1.0,1.0,81,0.00,,,0.00,LWC V2.10 B1813,2013-01-11 14:58:00,
2013-01-11 10:03:00,30.9,25.8,30.44,SSE,152,0.0,0.0,81,0.00,,,0.00,LWC V2.10 B1813,2013-01-11 15:03:00,
2013-01-11 10:08:00,31.4,26.0,30.44,SSE,149,0.0,0.0,80,0.00,,,0.00,LWC V2.10 B1813,2013-01-11 15:08:00,
2013-01-11 10:13:00,31.5,25.8,30.43,ESE,116,1.0,1.0,79,0.00,,,0.00,LWC V2.10 B1813,2013-01-11 15:13:00,
2013-01-11 10:18:00,31.4,25.7,30.42,NE,44,0.0,1.0,79,0.00,,,0.00,LWC V2.10 B1813,2013-01-11 15:18:00,
2013-01-11 10:23:00,31.4,25.7,30.42,ESE,122,0.0,1.0,79,0.00,,,0.00,LWC V2.10 B1813,2013-01-11 15:23:00,
2013-01-11 10:28:00,31.5,25.8,30.42,ESE,123,1.0,2.0,79,0.00,,,0.00,LWC V2.10 B1813,2013-01-11 15:28:00,
2013-01-11 10:33:00,31.6,25.8,30.42,SE,127,0.0,1.0,79,0.00,,,0.00,LWC V2.10 B1813,2013-01-11 15:33:00,
2013-01-11 10:38:00,31.7,25.6,30.41,NE,37,0.0,1.0,78,0.00,,,0.00,LWC V2.10 B1813,2013-01-11 15:38:00,
2013-01-11 10:43:00,31.6,25.5,30.41,ENE,59,0.0,0.0,78,0.00,,,0.00,LWC V2.10 B1813,2013-01-11 15:43:00,
2013-01-11 10:48:00,31.8,25.7,30.41,ENE,66,0.0,1.0,78,0.00,,,0.00,LWC V2.10 B1813,2013-01-11 15:48:00,
2013-01-11 10:53:00,32.0,25.9,30.41,SE,140,0.0,1.0,78,0.00,,,0.00,LWC V2.10 B1813,2013-01-11 15:53:00,
2013-01-11 10:58:00,32.2,25.8,30.40,SE,128,0.0,0.0,77,0.00,,,0.00,LWC V2.10 B1813,2013-01-11 15:58:00,
2013-01-11 11:03:00,32.5,25.8,30.40,SSW,194,0.0,1.0,76,0.00,,,0.00,LWC V2.10 B1813,2013-01-11 16:03:00,
2013-01-11 11:08:00,32.6,25.9,30.40,WNW,289,0.0,0.0,76,0.00,,,0.00,LWC V2.10 B1813,2013-01-11 16:08:00,
2013-01-11 11:13:00,33.1,26.4,30.40,WNW,289,0.0,0.0,76,0.00,,,0.00,LWC V2.10 B1813,2013-01-11 16:13:00,
2013-01-11 11:18:00,33.8,26.4,30.40,WNW,288,0.0,0.0,74,0.00,,,0.00,LWC V2.10 B1813,2013-01-11 16:18:00,
2013-01-11 11:23:00,34.1,26.4,30.39,West,262,0.0,1.0,73,0.00,,,0.00,LWC V2.10 B1813,2013-01-11 16:23:00,
2013-01-11 11:28:00,34.3,26.2,30.39,West,259,1.0,1.0,72,0.00,,,0.00,LWC V2.10 B1813,2013-01-11 16:28:00,
2013-01-11 11:33:00,34.2,26.1,30.39,SE,140,1.0,1.0,72,0.00,,,0.00,LWC V2.10 B1813,2013-01-11 16:33:00,
2013-01-11 11:38:00,34.0,26.3,30.39,ESE,120,1.0,1.0,73,0.00,,,0.00,LWC V2.10 B1813,2013-01-11 16:38:00,
2013-01-11 11:43:00,34.0,26.3,30.39,ESE,117,0.0,0.0,73,0.00,,,0.00,LWC V2.10 B1813,2013-01-11 16:43:00,
2013-01-11 11:48:00,34.1,26.7,30.39,ESE,108,0.0,1.0,74,0.00,,,0.00,LWC V2.10 B1813,2013-01-11 16:48:00,
2013-01-11 11:53:00,34.3,26.6,30.38,ESE,108,0.0,0.0,73,0.00,,,0.00,LWC V2.10 B1813,2013-01-11 16:53:00,
2013-01-11 11:58:00,34.4,26.7,30.38,ESE,110,0.0,0.0,73,0.00,,,0.00,LWC V2.10 B1813,2013-01-11 16:58:00,
2013-01-11 12:03:00,34.6,26.9,30.38,ESE,102,0.0,0.0,73,0.00,,,0.00,LWC V2.10 B1813,2013-01-11 17:03:00,
2013-01-11 12:08:00,34.8,26.7,30.37,ESE,103,0.0,0.0,72,0.00,,,0.00,LWC V2.10 B1813,2013-01-11 17:08:00,
2013-01-11 12:13:00,35.0,26.6,30.36,ESE,116,2.0,2.0,71,0.00,,,0.00,LWC V2.10 B1813,2013-01-11 17:13:00,
2013-01-11 12:18:00,35.1,26.7,30.36,East,99,2.0,2.0,71,0.00,,,0.00,LWC V2.10 B1813,2013-01-11 17:18:00,
2013-01-11 12:23:00,35.4,26.9,30.36,ESE,121,0.0,1.0,71,0.00,,,0.00,LWC V2.10 B1813,2013-01-11 17:23:00,
2013-01-11 12:28:00,35.8,27.0,30.36,ESE,115,1.0,1.0,70,0.00,,,0.00,LWC V2.10 B1813,2013-01-11 17:28:00,
2013-01-11 12:33:00,36.0,26.8,30.35,NE,45,1.0,2.0,69,0.00,,,0.00,LWC V2.10 B1813,2013-01-11 17:33:00,
2013-01-11 12:38:00,36.4,26.9,30.35,East,89,1.0,1.0,68,0.00,,,0.00,LWC V2.10 B1813,2013-01-11 17:38:00,
2013-01-11 12:43:00,36.7,27.5,30.35,East,96,2.0,2.0,69,0.00,,,0.00,LWC V2.10 B1813,2013-01-11 17:43:00,
2013-01-11 12:48:00,36.8,26.9,30.35,ESE,109,2.0,2.0,67,0.00,,,0.00,LWC V2.10 B1813,2013-01-11 17:48:00,
2013-01-11 12:53:00,37.0,27.1,30.35,SE,125,1.0,1.0,67,0.00,,,0.00,LWC V2.10 B1813,2013-01-11 17:53:00,
2013-01-11 12:58:00,37.2,26.2,30.35,WNW,290,0.0,5.0,64,0.00,,,0.00,LWC V2.10 B1813,2013-01-11 17:58:00,
2013-01-11 13:03:00,37.3,26.3,30.35,SSE,151,3.0,5.0,64,0.00,,,0.00,LWC V2.10 B1813,2013-01-11 18:03:00,
2013-01-11 13:08:00,37.5,26.8,30.34,East,93,0.0,1.0,65,0.00,,,0.00,LWC V2.10 B1813,2013-01-11 18:08:00,
2013-01-11 13:13:00,37.5,26.4,30.33,East,87,1.0,3.0,64,0.00,,,0.00,LWC V2.10 B1813,2013-01-11 18:13:00,
2013-01-11 13:18:00,37.6,26.5,30.33,East,95,3.0,3.0,64,0.00,,,0.00,LWC V2.10 B1813,2013-01-11 18:18:00,
2013-01-11 13:23:00,37.5,26.1,30.33,East,88,2.0,2.0,63,0.00,,,0.00,LWC V2.10 B1813,2013-01-11 18:23:00,
2013-01-11 13:28:00,37.5,26.1,30.33,ENE,66,2.0,4.0,63,0.00,,,0.00,LWC V2.10 B1813,2013-01-11 18:28:00,
2013-01-11 13:33:00,37.4,26.4,30.31,ESE,117,4.0,6.0,64,0.00,,,0.00,LWC V2.10 B1813,2013-01-11 18:33:00,
2013-01-11 13:38:00,37.4,26.4,30.32,South,179,4.0,5.0,64,0.00,,,0.00,LWC V2.10 B1813,2013-01-11 18:38:00,
2013-01-11 13:43:00,37.4,26.4,30.32,East,98,0.0,6.0,64,0.00,,,0.00,LWC V2.10 B1813,2013-01-11 18:43:00,
2013-01-11 13:48:00,37.4,26.7,30.31,South,176,0.0,5.0,65,0.00,,,0.00,LWC V2.10 B1813,2013-01-11 18:48:00,
2013-01-11 13:53:00,37.4,26.7,30.32,SSE,154,3.0,3.0,65,0.00,,,0.00,LWC V2.10 B1813,2013-01-11 18:53:00,
2013-01-11 13:58:00,37.5,26.8,30.32,SSW,210,5.0,6.0,65,0.00,,,0.00,LWC V2.10 B1813,2013-01-11 18:58:00,
2013-01-11 14:03:00,37.5,26.8,30.32,SE,136,1.0,4.0,65,0.00,,,0.00,LWC V2.10 B1813,2013-01-11 19:03:00,
2013-01-11 14:08:00,37.5,27.2,30.32,ESE,114,4.0,4.0,66,0.00,,,0.00,LWC V2.10 B1813,2013-01-11 19:08:00,
2013-01-11 14:13:00,37.5,27.2,30.32,SE,131,3.0,5.0,66,0.00,,,0.00,LWC V2.10 B1813,2013-01-11 19:13:00,
2013-01-11 14:18:00,37.6,27.6,30.31,East,96,1.0,1.0,67,0.00,,,0.00,LWC V2.10 B1813,2013-01-11 19:18:00,
2013-01-11 14:23:00,37.5,27.6,30.31,South,175,1.0,5.0,67,0.00,,,0.00,LWC V2.10 B1813,2013-01-11 19:23:00,
2013-01-11 14:28:00,37.4,27.8,30.31,SW,218,2.0,6.0,68,0.00,,,0.00,LWC V2.10 B1813,2013-01-11 19:28:00,
2013-01-11 14:33:00,37.4,27.5,30.31,East,83,1.0,4.0,67,0.00,,,0.00,LWC V2.10 B1813,2013-01-11 19:33:00,
2013-01-11 14:38:00,37.3,27.7,30.31,South,172,1.0,1.0,68,0.00,,,0.00,LWC V2.10 B1813,2013-01-11 19:38:00,
2013-01-11 14:43:00,37.3,27.7,30.30,SE,144,1.0,3.0,68,0.00,,,0.00,LWC V2.10 B1813,2013-01-11 19:43:00,
2013-01-11 14:48:00,37.3,27.7,30.30,South,187,2.0,3.0,68,0.00,,,0.00,LWC V2.10 B1813,2013-01-11 19:48:00,
2013-01-11 14:53:00,37.2,28.0,30.30,SE,131,1.0,1.0,69,0.00,,,0.00,LWC V2.10 B1813,2013-01-11 19:53:00,
2013-01-11 14:58:00,37.2,28.0,30.30,SSE,151,0.0,2.0,69,0.00,,,0.00,LWC V2.10 B1813,2013-01-11 19:58:00,
2013-01-11 15:03:00,37.1,27.9,30.30,SW,225,3.0,6.0,69,0.00,,,0.00,LWC V2.10 B1813,2013-01-11 20:03:00,
2013-01-11 15:08:00,37.1,28.2,30.29,SSW,211,2.0,2.0,70,0.00,,,0.00,LWC V2.10 B1813,2013-01-11 20:08:00,
2013-01-11 15:13:00,37.0,28.1,30.29,WSW,248,0.0,1.0,70,0.00,,,0.00,LWC V2.10 B1813,2013-01-11 20:13:00,
2013-01-11 15:18:00,37.0,28.5,30.30,SW,221,0.0,1.0,71,0.00,,,0.00,LWC V2.10 B1813,2013-01-11 20:18:00,
2013-01-11 15:23:00,36.8,29.0,30.29,ESE,123,0.0,0.0,73,0.00,,,0.00,LWC V2.10 B1813,2013-01-11 20:23:00,
2013-01-11 15:28:00,36.8,28.6,30.29,West,268,0.0,2.0,72,0.00,,,0.00,LWC V2.10 B1813,2013-01-11 20:28:00,
2013-01-11 15:33:00,36.7,28.5,30.29,SSW,200,1.0,2.0,72,0.00,,,0.00,LWC V2.10 B1813,2013-01-11 20:33:00,
2013-01-11 15:38:00,36.7,28.2,30.28,SSE,159,0.0,1.0,71,0.00,,,0.00,LWC V2.10 B1813,2013-01-11 20:38:00,
2013-01-11 15:43:00,36.6,28.4,30.28,SSW,211,0.0,0.0,72,0.00,,,0.00,LWC V2.10 B1813,2013-01-11 20:43:00,
2013-01-11 15:48:00,36.5,28.7,30.28,NNE,26,0.0,0.0,73,0.00,,,0.00,LWC V2.10 B1813,2013-01-11 20:48:00,
2013-01-11 15:53:00,36.5,28.3,30.28,East,94,1.0,2.0,72,0.00,,,0.00,LWC V2.10 B1813,2013-01-11 20:53:00,
2013-01-11 15:58:00,36.5,29.0,30.27,SW,235,0.0,0.0,74,0.00,,,0.00,LWC V2.10 B1813,2013-01-11 20:58:00,
2013-01-11 16:03:00,36.5,28.7,30.27,East,96,0.0,3.0,73,0.00,,,0.00,LWC V2.10 B1813,2013-01-11 21:03:00,
2013-01-11 16:08:00,36.4,28.9,30.27,East,97,0.0,1.0,74,0.00,,,0.00,LWC V2.10 B1813,2013-01-11 21:08:00,
2013-01-11 16:13:00,36.3,28.8,30.27,ESE,106,0.0,1.0,74,0.00,,,0.00,LWC V2.10 B1813,2013-01-11 21:13:00,
2013-01-11 16:18:00,36.2,28.7,30.27,ESE,106,0.0,0.0,74,0.00,,,0.00,LWC V2.10 B1813,2013-01-11 21:18:00,
2013-01-11 16:23:00,36.0,28.9,30.27,SSE,163,0.0,0.0,75,0.00,,,0.00,LWC V2.10 B1813,2013-01-11 21:23:00,
2013-01-11 16:28:00,35.8,29.0,30.27,WSW,249,0.0,0.0,76,0.00,,,0.00,LWC V2.10 B1813,2013-01-11 21:28:00,
2013-01-11 16:33:00,35.7,28.9,30.26,SW,221,0.0,0.0,76,0.00,,,0.00,LWC V2.10 B1813,2013-01-11 21:33:00,
2013-01-11 16:38:00,35.7,28.9,30.26,SE,145,0.0,0.0,76,0.00,,,0.00,LWC V2.10 B1813,2013-01-11 21:38:00,
2013-01-11 16:43:00,35.6,28.8,30.26,SSW,193,0.0,0.0,76,0.00,,,0.00,LWC V2.10 B1813,2013-01-11 21:43:00,
2013-01-11 16:48:00,35.4,29.2,30.26,SSW,201,0.0,0.0,78,0.00,,,0.00,LWC V2.10 B1813,2013-01-11 21:48:00,
2013-01-11 16:53:00,35.1,28.9,30.26,SSW,201,0.0,0.0,78,0.00,,,0.00,LWC V2.10 B1813,2013-01-11 21:53:00,
2013-01-11 16:58:00,34.8,29.3,30.26,SSW,201,0.0,0.0,80,0.00,,,0.00,LWC V2.10 B1813,2013-01-11 21:58:00,
2013-01-11 17:03:00,34.5,29.9,30.26,SSW,201,0.0,0.0,83,0.00,,,0.00,LWC V2.10 B1813,2013-01-11 22:03:00,
2013-01-11 17:08:00,34.2,30.2,30.26,SSW,201,0.0,0.0,85,0.00,,,0.00,LWC V2.10 B1813,2013-01-11 22:08:00,
2013-01-11 17:13:00,33.9,30.7,30.25,West,276,0.0,0.0,88,0.00,,,0.00,LWC V2.10 B1813,2013-01-11 22:13:00,
2013-01-11 17:18:00,33.7,31.1,30.25,West,275,0.0,0.0,90,0.15,,,0.01,LWC V2.10 B1813,2013-01-11 22:18:00,
2013-01-11 17:23:00,33.4,31.1,30.25,West,274,0.0,0.0,91,0.14,,,0.03,LWC V2.10 B1813,2013-01-11 22:23:00,
2013-01-11 17:28:00,33.3,31.2,30.25,West,277,0.0,0.0,92,0.11,,,0.03,LWC V2.10 B1813,2013-01-11 22:28:00,
2013-01-11 17:33:00,33.2,31.4,30.24,West,277,0.0,0.0,93,0.06,,,0.03,LWC V2.10 B1813,2013-01-11 22:33:00,
2013-01-11 17:38:00,33.1,31.6,30.24,West,277,0.0,0.0,94,0.04,,,0.04,LWC V2.10 B1813,2013-01-11 22:38:00,
2013-01-11 17:43:00,33.1,31.6,30.23,West,279,0.0,0.0,94,0.04,,,0.04,LWC V2.10 B1813,2013-01-11 22:43:00,
2013-01-11 17:48:00,32.9,31.4,30.23,West,279,0.0,0.0,94,0.04,,,0.04,LWC V2.10 B1813,2013-01-11 22:48:00,
2013-01-11 17:53:00,32.9,31.6,30.23,West,279,0.0,0.0,95,0.04,,,0.04,LWC V2.10 B1813,2013-01-11 22:53:00,
2013-01-11 17:58:00,32.9,31.6,30.23,West,279,0.0,0.0,95,0.00,,,0.04,LWC V2.10 B1813,2013-01-11 22:58:00,
2013-01-11 18:03:00,32.8,31.5,30.23,West,279,0.0,0.0,95,0.00,,,0.04,LWC V2.10 B1813,2013-01-11 23:03:00,
2013-01-11 18:08:00,32.8,31.5,30.23,West,277,0.0,0.0,95,0.00,,,0.04,LWC V2.10 B1813,2013-01-11 23:08:00,
2013-01-11 18:13:00,32.8,31.8,30.23,West,277,0.0,0.0,96,0.00,,,0.04,LWC V2.10 B1813,2013-01-11 23:13:00,
2013-01-11 18:18:00,32.7,31.7,30.23,West,277,0.0,0.0,96,0.00,,,0.04,LWC V2.10 B1813,2013-01-11 23:18:00,
2013-01-11 18:23:00,32.7,31.7,30.23,West,279,0.0,0.0,96,0.00,,,0.04,LWC V2.10 B1813,2013-01-11 23:23:00,
2013-01-11 18:28:00,32.7,31.7,30.23,West,276,0.0,0.0,96,0.00,,,0.04,LWC V2.10 B1813,2013-01-11 23:28:00,
2013-01-11 18:33:00,32.7,31.7,30.23,West,276,0.0,0.0,96,0.00,,,0.04,LWC V2.10 B1813,2013-01-11 23:33:00,
2013-01-11 18:38:00,32.7,31.7,30.22,West,277,0.0,0.0,96,0.00,,,0.04,LWC V2.10 B1813,2013-01-11 23:38:00,
2013-01-11 18:43:00,32.7,31.7,30.22,West,277,0.0,0.0,96,0.00,,,0.04,LWC V2.10 B1813,2013-01-11 23:43:00,
2013-01-11 18:48:00,32.7,31.7,30.22,West,277,0.0,0.0,96,0.00,,,0.04,LWC V2.10 B1813,2013-01-11 23:48:00,
2013-01-11 18:53:00,32.7,31.7,30.22,West,277,0.0,0.0,96,0.00,,,0.04,LWC V2.10 B1813,2013-01-11 23:53:00,
2013-01-11 18:58:00,32.7,31.7,30.22,West,277,0.0,0.0,96,0.00,,,0.04,LWC V2.10 B1813,2013-01-11 23:58:00,
2013-01-11 19:03:00,32.7,31.9,30.22,West,277,0.0,0.0,97,0.00,,,0.04,LWC V2.10 B1813,2013-01-12 00:03:00,
2013-01-11 19:08:00,32.6,31.8,30.22,West,277,0.0,0.0,97,0.00,,,0.05,LWC V2.10 B1813,2013-01-12 00:08:00,
2013-01-11 19:13:00,32.6,31.8,30.22,West,277,0.0,0.0,97,0.00,,,0.05,LWC V2.10 B1813,2013-01-12 00:13:00,
2013-01-11 19:18:00,32.6,31.8,30.22,West,277,0.0,0.0,97,0.00,,,0.05,LWC V2.10 B1813,2013-01-12 00:18:00,
2013-01-11 19:23:00,32.6,31.8,30.22,West,277,0.0,0.0,97,0.00,,,0.05,LWC V2.10 B1813,2013-01-12 00:23:00,
2013-01-11 19:28:00,32.6,31.8,30.21,West,277,0.0,0.0,97,0.00,,,0.06,LWC V2.10 B1813,2013-01-12 00:28:00,
2013-01-11 19:33:00,32.6,31.8,30.21,West,278,0.0,0.0,97,0.00,,,0.06,LWC V2.10 B1813,2013-01-12 00:33:00,
2013-01-11 19:38:00,32.6,31.8,30.21,West,277,0.0,0.0,97,0.00,,,0.06,LWC V2.10 B1813,2013-01-12 00:38:00,
2013-01-11 19:43:00,32.6,31.8,30.21,West,277,0.0,0.0,97,0.04,,,0.07,LWC V2.10 B1813,2013-01-12 00:43:00,
2013-01-11 19:48:00,32.6,31.8,30.21,West,277,0.0,0.0,97,0.04,,,0.07,LWC V2.10 B1813,2013-01-12 00:48:00,
2013-01-11 19:53:00,32.6,31.8,30.21,West,277,0.0,0.0,97,0.04,,,0.07,LWC V2.10 B1813,2013-01-12 00:53:00,
2013-01-11 19:58:00,32.6,31.8,30.20,West,277,0.0,0.0,97,0.00,,,0.07,LWC V2.10 B1813,2013-01-12 00:58:00,
2013-01-11 20:03:00,32.6,31.8,30.20,West,277,0.0,0.0,97,0.00,,,0.07,LWC V2.10 B1813,2013-01-12 01:03:00,
2013-01-11 20:08:00,32.6,31.8,30.20,West,279,0.0,0.0,97,0.00,,,0.07,LWC V2.10 B1813,2013-01-12 01:08:00,
2013-01-11 20:13:00,32.6,31.8,30.20,West,279,0.0,0.0,97,0.00,,,0.08,LWC V2.10 B1813,2013-01-12 01:13:00,
2013-01-11 20:18:00,32.6,31.8,30.20,West,280,0.0,0.0,97,0.00,,,0.08,LWC V2.10 B1813,2013-01-12 01:18:00,
2013-01-11 20:23:00,32.5,31.7,30.19,West,279,0.0,0.0,97,0.00,,,0.08,LWC V2.10 B1813,2013-01-12 01:23:00,
2013-01-11 20:28:00,32.6,31.8,30.19,West,280,0.0,0.0,97,0.00,,,0.08,LWC V2.10 B1813,2013-01-12 01:28:00,
2013-01-11 20:33:00,32.6,31.8,30.19,West,279,0.0,0.0,97,0.00,,,0.08,LWC V2.10 B1813,2013-01-12 01:33:00,
2013-01-11 20:43:00,32.6,31.8,30.19,West,279,0.0,0.0,97,0.00,,,0.08,LWC V2.10 B1813,2013-01-12 01:43:00,
2013-01-11 20:48:00,32.5,31.7,30.19,West,280,0.0,0.0,97,0.00,,,0.08,LWC V2.10 B1813,2013-01-12 01:48:00,
2013-01-11 20:53:00,32.5,31.7,30.19,West,279,0.0,0.0,97,0.00,,,0.08,LWC V2.10 B1813,2013-01-12 01:53:00,
2013-01-11 20:58:00,32.6,31.8,30.19,West,279,0.0,0.0,97,0.00,,,0.08,LWC V2.10 B1813,2013-01-12 01:58:00,
2013-01-11 21:03:00,32.6,31.8,30.18,West,280,0.0,0.0,97,0.00,,,0.08,LWC V2.10 B1813,2013-01-12 02:03:00,
2013-01-11 21:08:00,32.6,31.8,30.18,West,280,0.0,0.0,97,0.00,,,0.08,LWC V2.10 B1813,2013-01-12 02:08:00,
2013-01-11 21:13:00,32.6,31.8,30.18,West,280,0.0,0.0,97,0.00,,,0.08,LWC V2.10 B1813,2013-01-12 02:13:00,
2013-01-11 21:18:00,32.6,31.8,30.18,West,280,0.0,0.0,97,0.00,,,0.08,LWC V2.10 B1813,2013-01-12 02:18:00,
2013-01-11 21:23:00,32.6,31.8,30.17,West,279,0.0,0.0,97,0.00,,,0.08,LWC V2.10 B1813,2013-01-12 02:23:00,
2013-01-11 21:28:00,32.6,32.1,30.17,West,280,0.0,0.0,98,0.00,,,0.08,LWC V2.10 B1813,2013-01-12 02:28:00,
2013-01-11 21:33:00,32.6,32.1,30.17,West,279,0.0,0.0,98,0.00,,,0.09,LWC V2.10 B1813,2013-01-12 02:33:00,
2013-01-11 21:38:00,32.7,32.2,30.17,West,279,0.0,0.0,98,0.00,,,0.09,LWC V2.10 B1813,2013-01-12 02:38:00,
2013-01-11 21:43:00,32.7,32.2,30.18,WNW,293,0.0,0.0,98,0.00,,,0.09,LWC V2.10 B1813,2013-01-12 02:43:00,
2013-01-11 21:48:00,32.7,32.2,30.20,West,270,2.0,2.0,98,0.00,,,0.09,LWC V2.10 B1813,2013-01-12 02:48:00,
2013-01-11 21:53:00,32.9,32.4,30.19,West,260,0.0,1.0,98,0.00,,,0.09,LWC V2.10 B1813,2013-01-12 02:53:00,
2013-01-11 21:58:00,32.9,32.4,30.20,WNW,295,0.0,1.0,98,0.00,,,0.09,LWC V2.10 B1813,2013-01-12 02:58:00,
2013-01-11 22:03:00,32.9,32.4,30.20,WNW,295,0.0,0.0,98,0.00,,,0.09,LWC V2.10 B1813,2013-01-12 03:03:00,
2013-01-11 22:08:00,32.9,32.4,30.20,WNW,296,0.0,0.0,98,0.00,,,0.09,LWC V2.10 B1813,2013-01-12 03:08:00,
2013-01-11 22:13:00,32.9,32.4,30.20,WNW,296,0.0,0.0,98,0.00,,,0.09,LWC V2.10 B1813,2013-01-12 03:13:00,
2013-01-11 22:18:00,33.0,32.5,30.19,WNW,296,0.0,0.0,98,0.00,,,0.09,LWC V2.10 B1813,2013-01-12 03:18:00,
2013-01-11 22:23:00,33.0,32.5,30.19,WNW,296,0.0,0.0,98,0.00,,,0.09,LWC V2.10 B1813,2013-01-12 03:23:00,
2013-01-11 22:28:00,32.9,32.4,30.20,WNW,296,0.0,0.0,98,0.00,,,0.09,LWC V2.10 B1813,2013-01-12 03:28:00,
2013-01-11 22:33:00,32.9,32.4,30.19,WNW,295,0.0,0.0,98,0.00,,,0.09,LWC V2.10 B1813,2013-01-12 03:33:00,
2013-01-11 22:38:00,33.0,32.5,30.19,WNW,296,0.0,0.0,98,0.00,,,0.09,LWC V2.10 B1813,2013-01-12 03:38:00,
2013-01-11 22:43:00,33.0,32.5,30.19,WNW,295,0.0,0.0,98,0.00,,,0.09,LWC V2.10 B1813,2013-01-12 03:43:00,
2013-01-11 22:48:00,32.9,32.4,30.19,WNW,296,0.0,0.0,98,0.00,,,0.09,LWC V2.10 B1813,2013-01-12 03:48:00,
2013-01-11 22:53:00,32.8,32.3,30.19,WNW,296,0.0,0.0,98,0.00,,,0.10,LWC V2.10 B1813,2013-01-12 03:53:00,
2013-01-11 22:58:00,32.8,32.3,30.19,WNW,295,0.0,0.0,98,0.00,,,0.10,LWC V2.10 B1813,2013-01-12 03:58:00,
2013-01-11 23:03:00,32.9,32.4,30.19,WNW,296,0.0,0.0,98,0.00,,,0.10,LWC V2.10 B1813,2013-01-12 04:03:00,
2013-01-11 23:08:00,33.0,32.5,30.19,WNW,296,0.0,0.0,98,0.04,,,0.11,LWC V2.10 B1813,2013-01-12 04:08:00,
2013-01-11 23:13:00,33.0,32.5,30.18,WNW,296,0.0,0.0,98,0.04,,,0.11,LWC V2.10 B1813,2013-01-12 04:13:00,
2013-01-11 23:18:00,32.9,32.4,30.18,WNW,296,0.0,0.0,98,0.04,,,0.11,LWC V2.10 B1813,2013-01-12 04:18:00,
2013-01-11 23:23:00,32.9,32.4,30.18,WNW,295,0.0,0.0,98,0.04,,,0.11,LWC V2.10 B1813,2013-01-12 04:23:00,
2013-01-11 23:28:00,32.9,32.4,30.17,WNW,295,0.0,0.0,98,0.00,,,0.11,LWC V2.10 B1813,2013-01-12 04:28:00,
2013-01-11 23:33:00,32.9,32.4,30.17,WNW,296,0.0,0.0,98,0.00,,,0.11,LWC V2.10 B1813,2013-01-12 04:33:00,
2013-01-11 23:38:00,32.9,32.4,30.17,WNW,295,0.0,0.0,98,0.00,,,0.11,LWC V2.10 B1813,2013-01-12 04:38:00,
2013-01-11 23:43:00,32.9,32.4,30.17,WNW,296,0.0,0.0,98,0.00,,,0.11,LWC V2.10 B1813,2013-01-12 04:43:00,
2013-01-11 23:48:00,32.9,32.4,30.17,WNW,295,0.0,0.0,98,0.00,,,0.12,LWC V2.10 B1813,2013-01-12 04:48:00,
2013-01-11 23:53:00,32.9,32.4,30.17,WNW,295,0.0,0.0,98,0.00,,,0.12,LWC V2.10 B1813,2013-01-12 04:53:00,
2013-01-11 23:58:00,32.8,32.3,30.17,WNW,295,0.0,0.0,98,0.00,,,0.12,LWC V2.10 B1813,2013-01-12 04:58:00,